Location: Unspecified
(0.0000°N, 0.0000°E)
Time: 14:45:49
(UTC+00:00)

deb Kosmos-252 - Visible Passes

Search period start: 15 June 2025 00:00
Search period end: 25 June 2025 00:00
Orbit: 503 x 1434 km, 62.3° (Epoch: 14 June)

Date Brightness Start Highest point End Pass type
(mag) Time Alt. Az. Time Alt. Az. Time Alt. Az.
18 Jun ? 21:33:05 10° NNW 21:33:19 11° NNW 21:33:19 11° NNW visible
19 Jun ? 20:11:44 10° NNE 20:11:56 11° NE 20:11:56 11° NE visible
19 Jun ? 21:56:25 10° NW 21:56:27 10° NW 21:56:27 10° NW visible
20 Jun ? 20:32:48 10° N 20:35:09 22° NNE 20:35:09 22° NNE visible
21 Jun ? 20:55:21 10° NNW 20:58:25 32° NNW 20:58:25 32° NNW visible
22 Jun ? 19:33:22 10° NNE 19:37:15 19° ENE 19:37:15 19° ENE visible
22 Jun ? 21:18:51 10° NW 21:21:47 28° NW 21:21:47 28° NW visible
23 Jun ? 19:54:50 10° N 20:00:42 43° ENE 20:00:42 43° ENE visible
23 Jun ? 21:43:26 10° WNW 21:45:14 17° W 21:45:14 17° W visible
24 Jun ? 20:17:33 10° NNW 20:24:10 90° WSW 20:24:13 89° S visible
